Location: El Carrer d�Abaix
(41.5797°N, 2.1791°E)
Time: 03:45:38
(UTC+00:00)

Terra - Pass Details

Date: 06 June 2020
Orbit: 701 x 703 km, 98.2° (Epoch: 04 July)

Event Time Altitude Azimuth Distance (km) Brightness Sun altitude
Exits shadow 21:02:43 20° 113° (ESE) 1,585 3.1 -14.9°
Maximum altitude 21:05:02 31° 68° (ENE) 1,229 2.9 -15.2°
Drops below altitude 10° 21:09:12 10° 7° (N) 2,179 5.0 -15.6°
Sets 21:11:40 0° 358° (N) 3,101 6.1 -15.9°
